Vancouver, WA
on Friday, November 30, 2012

Friday
Previous Day Next Day
Daily Summary
 ActualAverageRecord
Temperature
Mean Temperature °F 43°F  
Max Temperature 61°F 49°F 62°F (1903)
Min Temperature 44°F 37°F 20°F (1976)
Degree Days
Heating Degree Days 12    
Month to date heating degree days 503  
Since 1 July heating degree days 822  
Cooling Degree Days 0    
Month to date cooling degree days 0  
Year to date cooling degree days 398  
Growing Degree Days2 (Base °F )  
Moisture
Dew Point 44°F   
Average Humidity 75    
Maximum Humidity 93    
Minimum Humidity 57    
Precipitation
Precipitation 0.65 in 0.24 in 1.20 in (1902)
Month to date precipitation 7.16 5.91  
Year to date precipitation 38.32 32.37  
Snow
Snow 0.00 in in in ()
Month to date snowfall 0.0  
Snow Depth 0.00 in   
Wind
Wind Speed 9 mph   
Max Wind Speed 18 mph   
Max Gust Speed 32 mph   
Visibility 9 miles   
Events Rain   

Key: T is trace of precipitation, MM is missing value
Source: NWS Daily Summary
Time(PST)TemperatureDew PointHumidity Pressure Visibility Wind DirectionWind SpeedGust SpeedPrecipitationEvents Conditions
12:53 AM 44.1°F 39.0°F 82% 29.49 in 10.0 miles ESE 9.2 mph - 0.00 in Rain Light Rain
1:53 AM 45.0°F 39.9°F 82% 29.46 in 10.0 miles ESE 10.4 mph - 0.01 in Rain Light Rain
2:53 AM 44.1°F 39.9°F 85% 29.45 in 10.0 miles ESE 10.4 mph - 0.01 in   Mostly Cloudy
3:53 AM 45.0°F 39.9°F 82% 29.44 in 10.0 miles ESE 8.1 mph - N/A   Overcast
4:53 AM 45.0°F 42.1°F 90% 29.45 in 8.0 miles ESE 8.1 mph - 0.07 in Rain Light Rain
5:53 AM 45.0°F 41.0°F 86% 29.46 in 10.0 miles SE 10.4 mph 20.7 mph 0.02 in   Overcast
6:53 AM 45.0°F 42.1°F 90% 29.48 in 10.0 miles ESE 9.2 mph - 0.01 in   Overcast
7:53 AM 46.0°F 43.0°F 89% 29.50 in 10.0 miles ESE 6.9 mph - N/A   Overcast
8:53 AM 48.9°F 45.0°F 86% 29.50 in 10.0 miles East 8.1 mph - 0.01 in   Overcast
9:53 AM 51.1°F 44.1°F 77% 29.52 in 10.0 miles ESE 8.1 mph - N/A   Mostly Cloudy
10:53 AM 57.0°F 46.0°F 67% 29.52 in 10.0 miles SE 11.5 mph 24.2 mph 0.00 in   Mostly Cloudy
11:53 AM 59.0°F 46.0°F 62% 29.51 in 10.0 miles South 10.4 mph 25.3 mph N/A   Mostly Cloudy
12:53 PM 60.1°F 46.0°F 60% 29.50 in 10.0 miles SSE 16.1 mph 24.2 mph N/A   Overcast
1:53 PM 59.0°F 45.0°F 60% 29.50 in 10.0 miles South 11.5 mph 20.7 mph N/A   Mostly Cloudy
2:53 PM 57.9°F 46.0°F 65% 29.50 in 10.0 miles SSE 6.9 mph 23.0 mph 0.00 in Rain Light Rain
3:53 PM 57.9°F 45.0°F 62% 29.50 in 10.0 miles SSE 11.5 mph 18.4 mph 0.00 in   Overcast
4:53 PM 55.0°F 46.0°F 72% 29.50 in 10.0 miles ESE 9.2 mph - 0.00 in Rain Light Rain
5:53 PM 54.0°F 48.0°F 80% 29.50 in 9.0 miles SSE 6.9 mph - 0.04 in Rain Light Rain
6:53 PM 52.0°F 48.0°F 86% 29.49 in 10.0 miles ESE 8.1 mph - 0.02 in Rain Light Rain
7:53 PM 48.9°F 46.0°F 90% 29.48 in 10.0 miles ESE 8.1 mph - 0.02 in Rain Light Rain
8:53 PM 52.0°F 46.0°F 80% 29.45 in 10.0 miles ESE 8.1 mph - 0.00 in Rain Light Rain
9:53 PM 48.9°F 46.0°F 90% 29.49 in 5.0 miles Calm Calm - 0.08 in Rain Rain
10:53 PM 51.1°F 46.0°F 83% 29.51 in 6.0 miles Variable 6.9 mph 19.6 mph 0.26 in Rain Rain
11:53 PM 50.0°F 46.0°F 86% 29.48 in 6.0 miles ESE 8.1 mph - 0.09 in Rain Rain
Moon Phase
Nov. 30 Dec. 06 Dec. 13 Dec. 20 Dec. 28
Sunrise:07:30 AM (PST) Moon Rise:06:29 PM (PST)11/30
Sunset:04:28 PM (PST) Moon Set:09:05 AM (PST)11/30

Copyright © 2014 The Weather Underground, Inc.